SCP
0 0 0 0 0 0 0 -0 0 0 0 0 0 0 0 0 0 -0 0 -0 0 -0 -0 -0 0 0 0 0 0 0 -0 -0 0 0 0 0 -0 0 0 0 0 -0 -0 -0 -0
0 0 0 0 0 -0 0 0 0 0 0 0 0 0 0 -0 0 0 -0 -0 0 -0 0 0 0 0 0 0 0 -0 -0 0 -0 0 0 -0 -0 0 0 0 0 0 -0 -0 -0
0 0 0 0 0 0 0 -0 0 0 0 0 0 0 0 -0 0 0 0 0 0 0 0 0 0 0 0 0 0 -0 0 0 0 0 -0 -0 -0 0 0 0 -0 -0 -0 -0 -0
0 0 0 0 0 0 0 0 0 0 0 0 0 0 0 -0 0 0 0 0 0 0 0 0 0 0 0 0 0 -0 -0 0 0 -0 0 0 0 0 0 0 -0 -0 -0 -0 -0
0 0 0 0 0 0 0 0 0 0 0 0 0 0 -0 0 0 0 0 0 0 0 0 0 0 0 0 0 0 -0 0 -0 0 -0 -0 0 0 0 0 -0 -0 -0 -0 -0 -0
0 0 0 0 0 0 0 0 0 0 0 0 0 -0 -0 0 0 0 0 0 0 0 0 0 0 0 0 0 0 0 0 0 0 0 0 0 0 0 0 -0 -0 -0 -0 -0 -0
0 0 0 0 0 0 0 0 0 0 0 0 -0 -0 0 0 0 0 0 0 0 0 0 0 0 0 0 0 0 0 -0 0 0 -0 -0 0 0 0 0 -0 -0 -0 0 -0 0
0 0 0 0 0 0 0 0 0 0 0 -0 -0 0 0 0 0 0 0 0 0 0 0 0 0 0 0 0 0 0 0 0 0 0 0 0 0 0 -0 -0 -0 -0 -0 -0 0
0 0 0 0 0 0 0 0 -0 0 -0 0 0 0 0 0 0 -0 0 0 -0 0 0 0 0 0 0 0 0 0 0 0 0 -0 -0 -0 0 -0 -0 -0 -0 -0 -0 -0 -0
0 0 0 0 0 0 0 0 0 0 0 0 0 0 0 0 0 0 0 0 0 0 0 0 0 0 0 0 0 0 0 0 0 -0 -0 -0 -0 -0 0 0 0 0 0 -0 -0
0 0 0 0 0 0 -0 0 0 0 0 0 0 0 0 0 0 -0 0 0 0 0 0 0 0 0 0 0 0 0 0 0 0 0 0 0 0 -0 0 0 0 0 0 -0 0
0 0 0 0 0 0 0 0 0 0 -0 0 0 -0 0 -0 0 0 0 0 0 0 0 0 0 0 0 0 0 0 0 0 0 0 0 0 0 0 0 0 0 0 0 0 0
0 0 0 0 0 0 0 0 0 0 -0 0 0 0 -0 0 0 0 0 0 0 0 0 0 0 0 0 0 0 0 0 0 0 0 0 0 0 0 0 0 0 -0 0 0 0
0 0 0 0 0 0 -0 0 0 -0 0 0 0 0 0 0 0 0 0 0 0 0 0 0 0 0 0 0 0 0 0 0 0 -0 -0 0 0 0 0 0 0 0 0 0 -0
0 0 0 0 0 0 0 0 0 0 0 0 0 0 0 0 0 0 0 0 0 0 0 0 0 0 0 0 0 0 0 0 0 0 0 0 0 0 0 0 0 0 0 0 0
0 0 0 0 0 -0 0 0 0 0 0 0 0 0 0 0 0 0 0 0 0 0 0 0 0 -0 0 0 0 0 0 0 0 0 0 0 0 0 0 0 0 0 0 0 -0
0 0 0 0 -0 0 0 0 0 0 0 0 0 0 0 0 0 0 0 0 0 0 0 0 0 0 0 0 0 0 0 0 0 0 0 0 0 0 0 -0 -0 -0 0 0 0
0 0 0 0 -0 0 0 0 0 0 0 0 0 0 0 0 0 0 0 0 0 0 0 0 0 0 0 0 0 0 0 0 0 0 0 0 0 -0 0 -0 -0 0 0 1 1
0 0 0 -0 0 0 0 0 0 -0 0 0 0 0 0 0 0 0 0 0 0 0 0 0 0 0 0 0 0 0 0 0 0 0 0 0 0 0 0 -0 -0 0 0 0 0
0 0 -0 -0 0 0 0 0 -0 0 0 0 0 0 0 0 0 0 0 0 0 0 0 0 0 0 0 0 0 0 0 0 0 0 0 0 0 0 0 0 0 0 0 0 0
0 0 -0 0 0 0 0 0 -0 -0 0 0 0 0 0 0 -0 0 0 0 0 0 0 0 0 0 0 0 0 0 0 0 0 0 0 0 0 0 0 -0 -0 -0 -0 0 -0
0 0 0 0 0 0 0 -0 -0 -0 0 0 0 0 0 0 0 -0 0 0 0 0 0 0 0 0 0 0 0 0 0 0 0 0 0 0 0 0 0 0 -0 0 0 0 -0
0 0 0 0 0 0 0 -0 -0 -0 0 0 0 0 0 0 0 -0 0 0 0 0 0 0 0 0 0 0 0 0 0 0 0 0 0 0 0 0 0 0 -0 -1 -0 -0 0
0 0 0 0 0 0 0 -0 -0 -0 0 0 0 0 0 0 0 0 0 0 0 0 0 0 0 0 0 0 0 0 0 0 0 0 0 0 0 1 1 1 0 -1 -1 -1 -0
0 0 0 0 0 0 0 -0 0 0 0 0 0 0 0 0 0 0 0 0 0 0 0 0 0 0 0 0 0 0 0 0 0 0 0 0 0 0 1 1 1 0 0 0 0
0 0 0 0 0 0 0 -0 0 0 0 0 0 0 0 0 0 0 0 0 0 0 0 0 0 0 0 0 0 0 0 0 0 0 0 0 0 0 0 1 1 1 0 -0 0
0 0 0 0 0 0 0 0 0 0 0 0 0 0 0 0 0 0 0 0 0 0 0 0 0 0 0 0 0 0 0 0 0 1 0 0 0 0 1 1 0 0 0 0 0
Wind_Speed_500mb
30 30 30 29 30 31 34 37 41 46 49 51 50 50 49 47 44 40 36 7 2 15 7 15 16 25 16 8 19 14 3 5 8 8 11 17 9 36 32 60 23 37 51 64 63
33 34 33 33 33 32 34 37 40 45 50 53 52 50 50 51 46 32 8 7 8 7 14 20 24 30 10 8 11 11 6 15 20 19 13 34 24 42 20 37 9 26 42 73 66
36 35 37 36 36 35 36 38 40 43 47 53 53 50 48 50 39 8 7 9 13 12 14 17 19 17 12 14 12 8 14 7 36 47 59 37 33 23 41 4 39 62 77 75 69
35 39 38 37 37 38 37 39 40 43 47 51 53 49 45 42 7 8 18 13 10 16 23 29 16 8 8 9 17 7 24 21 50 62 23 28 53 19 38 25 45 55 80 78 71
40 39 39 40 38 39 40 41 41 43 45 51 52 47 42 27 29 16 14 13 9 22 32 24 14 12 7 7 13 11 14 25 50 53 19 32 28 21 24 50 50 58 69 73 68
40 42 42 40 40 41 42 42 42 44 45 52 50 43 35 15 10 11 15 15 14 27 32 20 11 5 11 7 7 15 38 40 53 42 11 21 25 26 34 58 61 67 65 71 65
42 42 41 43 43 44 44 44 43 44 49 51 46 40 38 47 14 13 18 13 12 29 25 18 12 15 4 13 20 21 18 21 19 13 0 53 9 15 68 68 67 67 63 66 59
44 43 40 42 43 45 45 46 44 46 54 47 40 36 28 16 14 27 18 12 17 29 19 12 15 35 25 19 17 9 6 10 15 11 11 16 10 23 80 78 66 72 69 64 61
44 43 42 41 43 45 46 45 42 44 48 36 28 19 27 12 21 27 26 14 18 14 14 17 30 26 9 7 10 11 7 8 19 6 4 12 4 29 70 62 56 64 73 70 63
42 42 41 40 41 42 44 41 37 35 14 12 16 13 34 20 15 28 26 17 19 15 24 21 6 4 7 8 10 10 6 8 12 18 14 6 23 33 49 61 56 53 55 69 68
42 41 39 39 37 37 38 37 16 8 37 27 41 43 48 22 20 36 35 36 36 22 8 11 5 14 19 14 13 8 6 15 24 21 6 24 16 42 44 45 45 58 54 75 78
42 40 38 37 36 33 31 31 19 21 29 57 57 61 79 67 30 26 39 41 17 10 6 6 16 22 13 13 8 10 11 24 21 18 13 19 13 30 34 46 66 71 70 70 80
42 39 37 37 35 30 31 25 27 36 17 47 52 53 79 36 44 49 52 48 10 9 11 18 20 14 10 15 13 20 13 15 21 8 6 5 9 10 16 19 35 40 45 61 84
42 37 35 34 31 32 36 14 22 6 7 16 12 23 45 32 14 48 45 47 8 20 14 12 30 16 15 18 17 16 26 31 14 9 7 7 7 10 18 33 25 52 58 67 86
42 38 35 33 24 28 20 19 16 3 5 10 12 10 40 32 12 29 56 47 21 19 13 17 9 17 16 31 19 19 11 4 1 4 6 10 8 15 14 22 36 52 78 95 90
43 39 40 37 46 50 34 24 6 9 14 10 21 16 15 25 12 7 39 35 54 9 11 20 26 11 22 14 17 7 9 15 10 7 6 8 9 12 11 18 14 55 82 77 95
44 41 46 43 56 33 21 15 7 8 10 11 15 17 18 14 19 12 10 15 16 10 7 19 14 14 12 3 10 16 14 8 9 8 10 9 6 15 29 33 33 32 57 83 55
39 46 52 57 55 43 29 3 9 19 13 11 10 20 18 15 16 13 13 14 15 9 4 8 12 11 6 13 12 6 15 11 8 5 6 10 6 7 21 56 67 54 61 88 79
38 53 62 64 49 33 8 6 17 12 8 18 22 13 10 11 14 17 17 22 29 18 16 3 9 9 6 11 17 6 4 13 12 3 7 6 13 5 37 45 59 64 72 67 82
42 54 75 58 40 21 6 11 14 12 14 12 5 7 21 27 14 20 16 16 19 21 18 12 6 6 15 18 5 16 8 5 7 4 4 8 12 8 24 25 35 38 46 54 59
44 21 55 53 25 25 11 14 12 42 21 8 10 13 6 9 28 15 23 17 23 21 21 15 9 14 9 5 13 3 3 10 10 10 9 4 6 13 11 11 21 20 30 36 40
39 7 12 39 16 12 16 13 15 40 39 17 10 16 7 1 4 15 22 22 51 24 18 15 10 5 3 11 6 7 6 11 10 6 3 8 3 15 4 18 30 38 41 35 40
18 8 26 53 15 11 14 30 43 30 26 11 15 9 5 3 3 9 10 10 29 11 17 12 3 6 16 14 12 12 6 10 8 7 7 11 6 17 15 21 31 37 46 47 45
16 7 26 44 44 26 14 20 27 33 37 43 29 23 5 7 5 4 8 14 22 16 31 20 8 13 11 11 7 3 6 10 13 7 6 8 10 23 25 23 27 32 46 43 37
12 14 15 10 30 18 16 15 35 17 26 30 10 11 7 5 4 9 10 7 17 13 11 11 9 9 4 6 5 3 2 8 8 6 10 9 18 13 13 14 28 31 41 42 36
7 5 7 7 7 35 14 13 24 23 12 16 6 9 1 1 10 13 8 7 4 13 9 10 2 7 10 14 13 14 27 22 19 28 24 21 14 7 20 36 47 41 36 37 33
13 6 9 6 7 9 16 25 22 16 27 40 17 2 4 7 15 32 29 24 13 10 6 8 8 7 0 7 10 13 21 18 17 19 4 9 4 8 22 31 36 37 29 28 27
Wind_Direction_500mb
314 320 322 326 331 336 339 343 344 343 343 339 339 337 333 329 324 310 308 279 107 203 156 190 186 166 186 230 229 241 57 185 234 155 246 264 290 155 157 142 164 187 165 166 159
306 310 315 319 322 327 331 336 340 340 340 337 337 335 332 330 325 312 307 212 216 206 214 207 172 170 187 235 219 153 147 222 194 202 230 229 232 142 126 159 107 145 154 157 164
295 301 306 311 316 320 325 329 334 336 335 334 334 333 330 331 326 11 16 281 239 234 201 202 167 182 207 226 235 200 216 218 263 252 258 223 207 138 128 186 166 150 154 162 168
286 291 297 302 308 313 317 321 327 330 332 331 329 330 326 328 302 335 341 322 234 210 183 179 203 195 201 215 247 262 266 274 282 289 198 174 183 147 165 182 165 161 158 168 174
286 288 291 298 302 306 310 314 320 324 326 326 325 325 323 312 279 306 295 313 210 186 177 181 206 180 188 227 315 208 278 294 297 293 242 159 144 157 153 151 156 157 164 172 178
279 285 290 294 298 301 303 307 312 317 320 320 320 319 311 288 295 273 303 286 221 185 178 195 185 218 269 238 174 284 293 297 306 285 220 122 135 111 136 151 157 164 172 177 184
277 280 285 290 295 297 299 302 308 313 312 311 310 307 295 267 269 291 276 271 220 182 182 195 239 280 285 331 301 293 320 320 287 317 200 120 46 127 155 160 163 174 172 180 190
278 278 281 286 290 293 295 300 306 313 306 304 297 298 275 293 203 247 247 226 190 186 224 234 294 293 260 272 318 332 32 343 293 330 291 124 211 173 164 162 170 177 178 183 196
274 278 281 283 288 291 293 300 310 311 305 297 285 278 268 258 229 215 219 195 156 196 251 288 294 271 214 76 4 2 247 280 312 252 289 95 176 202 173 165 171 182 186 185 195
270 271 275 279 283 289 293 303 317 305 333 301 245 287 254 246 237 216 211 225 222 242 262 258 260 54 43 89 211 230 238 283 253 289 21 348 210 175 185 172 176 185 193 191 199
268 270 270 274 280 286 294 319 353 303 318 282 275 267 269 267 285 227 221 225 229 223 195 282 75 226 224 192 211 239 230 266 283 287 290 271 242 169 181 177 174 185 196 199 207
265 266 268 269 272 276 288 293 286 301 304 291 278 266 263 270 284 253 213 206 201 199 157 340 240 232 225 254 246 271 275 273 285 263 170 283 225 161 177 189 188 193 201 202 215
263 263 264 263 267 268 263 256 324 304 279 293 261 242 248 239 239 258 198 197 171 180 204 198 234 201 205 257 248 253 225 256 241 304 253 285 35 152 240 266 225 224 218 221 221
259 260 261 261 265 251 241 301 340 205 349 271 223 232 216 218 278 233 221 194 178 204 212 226 256 240 225 237 176 247 228 237 259 54 279 71 272 221 210 227 230 246 232 229 224
250 254 250 247 237 235 198 301 358 121 338 221 188 221 190 172 205 211 205 195 194 216 132 238 217 228 239 239 201 229 205 206 245 63 23 343 100 268 146 242 237 239 240 235 223
245 249 243 242 239 239 265 299 11 60 251 278 168 166 117 177 227 139 206 211 218 188 229 248 276 201 230 231 208 150 64 43 53 88 37 266 120 289 253 227 223 222 229 234 231
241 244 241 231 233 244 257 292 72 180 304 219 176 158 153 161 226 169 171 185 190 162 262 284 259 234 178 21 21 69 56 5 357 12 218 305 58 232 305 290 241 243 220 230 230
240 240 238 227 232 237 293 70 173 232 254 298 16 167 175 151 218 200 177 204 217 136 106 220 314 182 181 166 182 153 141 150 194 217 275 344 272 356 337 35 38 33 61 67 74
239 239 236 225 230 239 263 196 201 205 244 354 318 171 226 189 169 175 193 197 204 169 165 166 277 293 192 165 135 192 117 193 126 47 69 252 336 111 357 22 27 44 70 75 72
236 230 233 226 227 182 148 237 232 225 351 3 282 136 185 192 185 163 190 192 195 182 156 226 257 265 287 107 72 140 167 65 21 175 220 291 83 314 351 16 43 52 56 60 60
209 222 240 223 178 180 211 241 289 260 296 308 337 313 321 144 200 179 192 206 191 206 151 176 119 295 24 88 184 6 37 64 120 133 157 115 305 360 317 24 75 91 68 51 45
182 212 194 172 164 192 220 223 266 278 295 286 283 252 252 247 267 191 192 192 197 176 159 188 145 130 203 278 249 123 221 148 128 206 133 124 209 340 22 63 63 43 38 37 39
183 240 201 189 193 215 226 242 260 274 274 269 327 205 25 352 306 198 156 291 199 117 158 173 6 56 350 3 3 62 25 82 111 74 188 133 260 358 36 55 71 78 65 61 65
147 181 233 200 209 191 193 237 246 260 265 263 262 303 18 311 33 321 92 27 86 109 131 108 112 141 172 204 174 341 3 73 104 78 108 52 67 18 11 20 31 78 81 74 73
188 215 226 178 199 212 183 215 231 242 244 266 260 203 241 342 46 21 20 85 37 17 62 99 105 99 134 250 181 213 358 46 58 160 118 149 91 12 356 11 18 45 62 68 73
278 21 249 356 12 219 194 251 256 262 249 262 184 290 319 357 190 197 147 57 134 5 60 13 140 95 21 28 59 53 9 72 57 85 105 108 81 328 42 42 40 44 63 71 66
297 295 279 295 256 170 210 228 249 237 271 235 204 83 34 268 71 107 103 93 120 109 73 77 108 76 59 9 47 26 349 80 79 35 134 102 115 357 48 39 31 24 36 52 49
Wind_Speed_850mb
30 30 30 29 30 31 34 37 41 46 49 51 50 50 49 47 44 40 36 7 2 15 7 15 16 25 16 8 19 14 3 5 8 8 11 17 9 36 32 60 23 37 51 64 63
33 34 33 33 33 32 34 37 40 45 50 53 52 50 50 51 46 32 8 7 8 7 14 20 24 30 10 8 11 11 6 15 20 19 13 34 24 42 20 37 9 26 42 73 66
36 35 37 36 36 35 36 38 40 43 47 53 53 50 48 50 39 8 7 9 13 12 14 17 19 17 12 14 12 8 14 7 36 47 59 37 33 23 41 4 39 62 77 75 69
35 39 38 37 37 38 37 39 40 43 47 51 53 49 45 42 7 8 18 13 10 16 23 29 16 8 8 9 17 7 24 21 50 62 23 28 53 19 38 25 45 55 80 78 71
40 39 39 40 38 39 40 41 41 43 45 51 52 47 42 27 29 16 14 13 9 22 32 24 14 12 7 7 13 11 14 25 50 53 19 32 28 21 24 50 50 58 69 73 68
40 42 42 40 40 41 42 42 42 44 45 52 50 43 35 15 10 11 15 15 14 27 32 20 11 5 11 7 7 15 38 40 53 42 11 21 25 26 34 58 61 67 65 71 65
42 42 41 43 43 44 44 44 43 44 49 51 46 40 38 47 14 13 18 13 12 29 25 18 12 15 4 13 20 21 18 21 19 13 0 53 9 15 68 68 67 67 63 66 59
44 43 40 42 43 45 45 46 44 46 54 47 40 36 28 16 14 27 18 12 17 29 19 12 15 35 25 19 17 9 6 10 15 11 11 16 10 23 80 78 66 72 69 64 61
44 43 42 41 43 45 46 45 42 44 48 36 28 19 27 12 21 27 26 14 18 14 14 17 30 26 9 7 10 11 7 8 19 6 4 12 4 29 70 62 56 64 73 70 63
42 42 41 40 41 42 44 41 37 35 14 12 16 13 34 20 15 28 26 17 19 15 24 21 6 4 7 8 10 10 6 8 12 18 14 6 23 33 49 61 56 53 55 69 68
42 41 39 39 37 37 38 37 16 8 37 27 41 43 48 22 20 36 35 36 36 22 8 11 5 14 19 14 13 8 6 15 24 21 6 24 16 42 44 45 45 58 54 75 78
42 40 38 37 36 33 31 31 19 21 29 57 57 61 79 67 30 26 39 41 17 10 6 6 16 22 13 13 8 10 11 24 21 18 13 19 13 30 34 46 66 71 70 70 80
42 39 37 37 35 30 31 25 27 36 17 47 52 53 79 36 44 49 52 48 10 9 11 18 20 14 10 15 13 20 13 15 21 8 6 5 9 10 16 19 35 40 45 61 84
42 37 35 34 31 32 36 14 22 6 7 16 12 23 45 32 14 48 45 47 8 20 14 12 30 16 15 18 17 16 26 31 14 9 7 7 7 10 18 33 25 52 58 67 86
42 38 35 33 24 28 20 19 16 3 5 10 12 10 40 32 12 29 56 47 21 19 13 17 9 17 16 31 19 19 11 4 1 4 6 10 8 15 14 22 36 52 78 95 90
43 39 40 37 46 50 34 24 6 9 14 10 21 16 15 25 12 7 39 35 54 9 11 20 26 11 22 14 17 7 9 15 10 7 6 8 9 12 11 18 14 55 82 77 95
44 41 46 43 56 33 21 15 7 8 10 11 15 17 18 14 19 12 10 15 16 10 7 19 14 14 12 3 10 16 14 8 9 8 10 9 6 15 29 33 33 32 57 83 55
39 46 52 57 55 43 29 3 9 19 13 11 10 20 18 15 16 13 13 14 15 9 4 8 12 11 6 13 12 6 15 11 8 5 6 10 6 7 21 56 67 54 61 88 79
38 53 62 64 49 33 8 6 17 12 8 18 22 13 10 11 14 17 17 22 29 18 16 3 9 9 6 11 17 6 4 13 12 3 7 6 13 5 37 45 59 64 72 67 82
42 54 75 58 40 21 6 11 14 12 14 12 5 7 21 27 14 20 16 16 19 21 18 12 6 6 15 18 5 16 8 5 7 4 4 8 12 8 24 25 35 38 46 54 59
44 21 55 53 25 25 11 14 12 42 21 8 10 13 6 9 28 15 23 17 23 21 21 15 9 14 9 5 13 3 3 10 10 10 9 4 6 13 11 11 21 20 30 36 40
39 7 12 39 16 12 16 13 15 40 39 17 10 16 7 1 4 15 22 22 51 24 18 15 10 5 3 11 6 7 6 11 10 6 3 8 3 15 4 18 30 38 41 35 40
18 8 26 53 15 11 14 30 43 30 26 11 15 9 5 3 3 9 10 10 29 11 17 12 3 6 16 14 12 12 6 10 8 7 7 11 6 17 15 21 31 37 46 47 45
16 7 26 44 44 26 14 20 27 33 37 43 29 23 5 7 5 4 8 14 22 16 31 20 8 13 11 11 7 3 6 10 13 7 6 8 10 23 25 23 27 32 46 43 37
12 14 15 10 30 18 16 15 35 17 26 30 10 11 7 5 4 9 10 7 17 13 11 11 9 9 4 6 5 3 2 8 8 6 10 9 18 13 13 14 28 31 41 42 36
7 5 7 7 7 35 14 13 24 23 12 16 6 9 1 1 10 13 8 7 4 13 9 10 2 7 10 14 13 14 27 22 19 28 24 21 14 7 20 36 47 41 36 37 33
13 6 9 6 7 9 16 25 22 16 27 40 17 2 4 7 15 32 29 24 13 10 6 8 8 7 0 7 10 13 21 18 17 19 4 9 4 8 22 31 36 37 29 28 27
Wind_Direction_850mb
314 320 322 326 331 336 339 343 344 343 343 339 339 337 333 329 324 310 308 279 107 203 156 190 186 166 186 230 229 241 57 185 234 155 246 264 290 155 157 142 164 187 165 166 159
306 310 315 319 322 327 331 336 340 340 340 337 337 335 332 330 325 312 307 212 216 206 214 207 172 170 187 235 219 153 147 222 194 202 230 229 232 142 126 159 107 145 154 157 164
295 301 306 311 316 320 325 329 334 336 335 334 334 333 330 331 326 11 16 281 239 234 201 202 167 182 207 226 235 200 216 218 263 252 258 223 207 138 128 186 166 150 154 162 168
286 291 297 302 308 313 317 321 327 330 332 331 329 330 326 328 302 335 341 322 234 210 183 179 203 195 201 215 247 262 266 274 282 289 198 174 183 147 165 182 165 161 158 168 174
286 288 291 298 302 306 310 314 320 324 326 326 325 325 323 312 279 306 295 313 210 186 177 181 206 180 188 227 315 208 278 294 297 293 242 159 144 157 153 151 156 157 164 172 178
279 285 290 294 298 301 303 307 312 317 320 320 320 319 311 288 295 273 303 286 221 185 178 195 185 218 269 238 174 284 293 297 306 285 220 122 135 111 136 151 157 164 172 177 184
277 280 285 290 295 297 299 302 308 313 312 311 310 307 295 267 269 291 276 271 220 182 182 195 239 280 285 331 301 293 320 320 287 317 200 120 46 127 155 160 163 174 172 180 190
278 278 281 286 290 293 295 300 306 313 306 304 297 298 275 293 203 247 247 226 190 186 224 234 294 293 260 272 318 332 32 343 293 330 291 124 211 173 164 162 170 177 178 183 196
274 278 281 283 288 291 293 300 310 311 305 297 285 278 268 258 229 215 219 195 156 196 251 288 294 271 214 76 4 2 247 280 312 252 289 95 176 202 173 165 171 182 186 185 195
270 271 275 279 283 289 293 303 317 305 333 301 245 287 254 246 237 216 211 225 222 242 262 258 260 54 43 89 211 230 238 283 253 289 21 348 210 175 185 172 176 185 193 191 199
268 270 270 274 280 286 294 319 353 303 318 282 275 267 269 267 285 227 221 225 229 223 195 282 75 226 224 192 211 239 230 266 283 287 290 271 242 169 181 177 174 185 196 199 207
265 266 268 269 272 276 288 293 286 301 304 291 278 266 263 270 284 253 213 206 201 199 157 340 240 232 225 254 246 271 275 273 285 263 170 283 225 161 177 189 188 193 201 202 215
263 263 264 263 267 268 263 256 324 304 279 293 261 242 248 239 239 258 198 197 171 180 204 198 234 201 205 257 248 253 225 256 241 304 253 285 35 152 240 266 225 224 218 221 221
259 260 261 261 265 251 241 301 340 205 349 271 223 232 216 218 278 233 221 194 178 204 212 226 256 240 225 237 176 247 228 237 259 54 279 71 272 221 210 227 230 246 232 229 224
250 254 250 247 237 235 198 301 358 121 338 221 188 221 190 172 205 211 205 195 194 216 132 238 217 228 239 239 201 229 205 206 245 63 23 343 100 268 146 242 237 239 240 235 223
245 249 243 242 239 239 265 299 11 60 251 278 168 166 117 177 227 139 206 211 218 188 229 248 276 201 230 231 208 150 64 43 53 88 37 266 120 289 253 227 223 222 229 234 231
241 244 241 231 233 244 257 292 72 180 304 219 176 158 153 161 226 169 171 185 190 162 262 284 259 234 178 21 21 69 56 5 357 12 218 305 58 232 305 290 241 243 220 230 230
240 240 238 227 232 237 293 70 173 232 254 298 16 167 175 151 218 200 177 204 217 136 106 220 314 182 181 166 182 153 141 150 194 217 275 344 272 356 337 35 38 33 61 67 74
239 239 236 225 230 239 263 196 201 205 244 354 318 171 226 189 169 175 193 197 204 169 165 166 277 293 192 165 135 192 117 193 126 47 69 252 336 111 357 22 27 44 70 75 72
236 230 233 226 227 182 148 237 232 225 351 3 282 136 185 192 185 163 190 192 195 182 156 226 257 265 287 107 72 140 167 65 21 175 220 291 83 314 351 16 43 52 56 60 60
209 222 240 223 178 180 211 241 289 260 296 308 337 313 321 144 200 179 192 206 191 206 151 176 119 295 24 88 184 6 37 64 120 133 157 115 305 360 317 24 75 91 68 51 45
182 212 194 172 164 192 220 223 266 278 295 286 283 252 252 247 267 191 192 192 197 176 159 188 145 130 203 278 249 123 221 148 128 206 133 124 209 340 22 63 63 43 38 37 39
183 240 201 189 193 215 226 242 260 274 274 269 327 205 25 352 306 198 156 291 199 117 158 173 6 56 350 3 3 62 25 82 111 74 188 133 260 358 36 55 71 78 65 61 65
147 181 233 200 209 191 193 237 246 260 265 263 262 303 18 311 33 321 92 27 86 109 131 108 112 141 172 204 174 341 3 73 104 78 108 52 67 18 11 20 31 78 81 74 73
188 215 226 178 199 212 183 215 231 242 244 266 260 203 241 342 46 21 20 85 37 17 62 99 105 99 134 250 181 213 358 46 58 160 118 149 91 12 356 11 18 45 62 68 73
278 21 249 356 12 219 194 251 256 262 249 262 184 290 319 357 190 197 147 57 134 5 60 13 140 95 21 28 59 53 9 72 57 85 105 108 81 328 42 42 40 44 63 71 66
297 295 279 295 256 170 210 228 249 237 271 235 204 83 34 268 71 107 103 93 120 109 73 77 108 76 59 9 47 26 349 80 79 35 134 102 115 357 48 39 31 24 36 52 49